Location: Arthez
(43.0833°N, 0.2500°W)
Time: 21:04:14
(UTC+00:00)

H-2A R/B - Pass Details

Date: 23 October 2021
Orbit: 577 x 653 km, 98.5° (Epoch: 06 December)

Event Time Altitude Azimuth Distance (km) Brightness Sun altitude
Exits shadow 18:34:00 21° 41° (NE) 1,360 3.4 -16.8°
Maximum altitude 18:36:22 39° 99° (E) 890 2.3 -17.2°
Drops below altitude 10° 18:40:18 10° 169° (S) 1,933 4.5 -18.0°
Sets 18:42:35 0° 177° (S) 2,843 5.4 -18.4°
